Voltar ao catálogo

HULIANWANG DIGUI-53

AtivoComunicaçõesLEO
NORAD 65110·PAYLOAD·🇨🇳 China

Lançado Aug 4, 2025 de Wenchang Space Launch Site

Loading…

Próximas Passagens (próximas 24 horas)

TLE

AtualizadoSource: Space-Track

Época: Sep 14, 2026, 14:11 UTC

1 65110U 25168E   26257.59122042 -.00000093  00000-0  67725-4 0  9996
2 65110  50.0060   5.0399 0008207 358.6084   1.4764 13.29330223 54585

Acompanhe HULIANWANG DIGUI-53 em tempo real com AllMySat

Download on the App Store